Time,TemperatureF,DewpointF,PressureIn,WindDirection,WindDirectionDegrees,WindSpeedMPH,WindSpeedGustMPH,Humidity,HourlyPrecipIn,Conditions,Clouds,dailyrainin,SoftwareType,DateUTC
2013-10-09 00:00:00,67.7,29.6,29.70,SSW,197,1.0,6.0,24,0.00,,,0.00,VWS V14.01,2013-10-09 07:00:00,
2013-10-09 00:02:00,67.9,28.8,29.70,SSW,192,5.0,5.0,23,0.00,,,0.00,VWS V14.01,2013-10-09 07:02:00,
2013-10-09 00:05:00,68.0,28.9,29.70,South,182,3.0,5.0,23,0.00,,,0.00,VWS V14.01,2013-10-09 07:05:00,
2013-10-09 00:07:00,68.0,28.9,29.70,SSW,194,0.0,6.0,23,0.00,,,0.00,VWS V14.01,2013-10-09 07:07:00,
2013-10-09 00:10:00,68.1,28.9,29.70,SSW,200,1.0,6.0,23,0.00,,,0.00,VWS V14.01,2013-10-09 07:10:00,
2013-10-09 00:12:00,68.2,30.1,29.70,SSW,196,2.0,5.0,24,0.00,,,0.00,VWS V14.01,2013-10-09 07:12:00,
2013-10-09 00:15:00,68.2,30.1,29.70,SSW,198,1.0,6.0,24,0.00,,,0.00,VWS V14.01,2013-10-09 07:15:00,
2013-10-09 00:17:00,68.1,30.0,29.70,SSW,204,0.0,4.0,24,0.00,,,0.00,VWS V14.01,2013-10-09 07:17:00,
2013-10-09 00:20:00,68.0,29.9,29.69,SW,233,4.0,5.0,24,0.00,,,0.00,VWS V14.01,2013-10-09 07:20:00,
2013-10-09 00:22:00,68.0,29.9,29.70,SW,217,5.0,5.0,24,0.00,,,0.00,VWS V14.01,2013-10-09 07:22:00,
2013-10-09 00:25:00,68.0,30.9,29.69,SW,218,1.0,5.0,25,0.00,,,0.00,VWS V14.01,2013-10-09 07:25:00,
2013-10-09 00:27:00,67.8,30.7,29.69,SSW,212,3.0,4.0,25,0.00,,,0.00,VWS V14.01,2013-10-09 07:27:00,
2013-10-09 00:30:00,67.6,30.6,29.69,SW,222,0.0,4.0,25,0.00,,,0.00,VWS V14.01,2013-10-09 07:30:00,
2013-10-09 00:32:00,67.4,30.4,29.69,SSW,207,2.0,4.0,25,0.00,,,0.00,VWS V14.01,2013-10-09 07:32:00,
2013-10-09 00:35:00,67.2,31.2,29.69,SW,221,2.0,6.0,26,0.00,,,0.00,VWS V14.01,2013-10-09 07:35:00,
2013-10-09 00:37:00,67.1,31.1,29.69,SW,223,2.0,4.0,26,0.00,,,0.00,VWS V14.01,2013-10-09 07:37:00,
2013-10-09 00:40:00,67.0,31.0,29.69,SW,226,2.0,4.0,26,0.00,,,0.00,VWS V14.01,2013-10-09 07:40:00,
2013-10-09 00:42:00,66.8,30.8,29.69,SW,217,4.0,5.0,26,0.00,,,0.00,VWS V14.01,2013-10-09 07:42:00,
2013-10-09 00:45:00,66.8,30.8,29.69,SSW,213,1.0,5.0,26,0.00,,,0.00,VWS V14.01,2013-10-09 07:45:00,
2013-10-09 00:47:00,66.7,30.8,29.69,SW,228,4.0,6.0,26,0.00,,,0.00,VWS V14.01,2013-10-09 07:47:00,
2013-10-09 00:50:00,66.7,30.8,29.69,SW,214,1.0,6.0,26,0.00,,,0.00,VWS V14.01,2013-10-09 07:50:00,
2013-10-09 00:52:00,66.7,30.8,29.69,SW,217,0.0,4.0,26,0.00,,,0.00,VWS V14.01,2013-10-09 07:52:00,
2013-10-09 00:55:00,66.7,30.8,29.69,SSW,202,3.0,5.0,26,0.00,,,0.00,VWS V14.01,2013-10-09 07:55:00,
2013-10-09 00:57:00,66.8,30.8,29.69,SSW,209,5.0,7.0,26,0.00,,,0.00,VWS V14.01,2013-10-09 07:57:00,
2013-10-09 01:00:00,67.0,31.0,29.69,SW,236,4.0,7.0,26,0.00,,,0.00,VWS V14.01,2013-10-09 08:00:00,
2013-10-09 01:02:00,66.9,30.9,29.69,SW,218,2.0,5.0,26,0.00,,,0.00,VWS V14.01,2013-10-09 08:02:00,
2013-10-09 01:05:00,66.9,30.9,29.69,SSW,209,1.0,6.0,26,0.00,,,0.00,VWS V14.01,2013-10-09 08:05:00,
2013-10-09 01:07:00,66.9,30.9,29.69,SW,223,4.0,5.0,26,0.00,,,0.00,VWS V14.01,2013-10-09 08:07:00,
2013-10-09 01:10:00,67.0,31.0,29.69,SW,222,0.0,5.0,26,0.00,,,0.00,VWS V14.01,2013-10-09 08:10:00,
2013-10-09 01:12:00,67.0,31.0,29.69,SSW,213,6.0,6.0,26,0.00,,,0.00,VWS V14.01,2013-10-09 08:12:00,
2013-10-09 01:15:00,67.2,31.2,29.69,South,182,6.0,12.0,26,0.00,,,0.00,VWS V14.01,2013-10-09 08:15:00,
2013-10-09 01:17:00,67.8,31.7,29.69,SW,223,4.0,10.0,26,0.00,,,0.00,VWS V14.01,2013-10-09 08:17:00,
2013-10-09 01:20:00,68.3,31.1,29.69,SW,223,4.0,10.0,25,0.00,,,0.00,VWS V14.01,2013-10-09 08:20:00,
2013-10-09 01:22:00,68.3,31.1,29.69,SSW,210,2.0,7.0,25,0.00,,,0.00,VWS V14.01,2013-10-09 08:22:00,
2013-10-09 01:25:00,68.1,31.0,29.69,South,188,2.0,7.0,25,0.00,,,0.00,VWS V14.01,2013-10-09 08:25:00,
2013-10-09 01:27:00,67.9,30.8,29.69,SSW,213,3.0,5.0,25,0.00,,,0.00,VWS V14.01,2013-10-09 08:27:00,
2013-10-09 01:30:00,67.8,30.7,29.69,WSW,241,3.0,5.0,25,0.00,,,0.00,VWS V14.01,2013-10-09 08:30:00,
2013-10-09 01:32:00,67.8,31.7,29.69,SW,215,4.0,6.0,26,0.00,,,0.00,VWS V14.01,2013-10-09 08:32:00,
2013-10-09 01:35:00,67.9,30.8,29.69,SSW,193,2.0,8.0,25,0.00,,,0.00,VWS V14.01,2013-10-09 08:35:00,
2013-10-09 01:37:00,68.2,31.1,29.69,SW,232,4.0,11.0,25,0.00,,,0.00,VWS V14.01,2013-10-09 08:37:00,
2013-10-09 01:40:00,68.3,31.1,29.69,SW,217,2.0,11.0,25,0.00,,,0.00,VWS V14.01,2013-10-09 08:40:00,
2013-10-09 01:42:00,68.2,31.1,29.69,SW,215,7.0,11.0,25,0.00,,,0.00,VWS V14.01,2013-10-09 08:42:00,
2013-10-09 01:45:00,68.4,32.2,29.68,SSW,200,5.0,11.0,26,0.00,,,0.00,VWS V14.01,2013-10-09 08:45:00,
2013-10-09 01:47:00,68.9,32.6,29.69,SSW,193,2.0,12.0,26,0.00,,,0.00,VWS V14.01,2013-10-09 08:47:00,
2013-10-09 01:50:00,69.0,31.8,29.69,SSW,199,3.0,12.0,25,0.00,,,0.00,VWS V14.01,2013-10-09 08:50:00,
2013-10-09 01:52:00,68.8,31.6,29.69,WSW,238,6.0,8.0,25,0.00,,,0.00,VWS V14.01,2013-10-09 08:52:00,
2013-10-09 01:55:00,68.6,31.4,29.69,SSW,198,6.0,13.0,25,0.00,,,0.00,VWS V14.01,2013-10-09 08:55:00,
2013-10-09 01:58:00,68.6,32.4,29.69,SW,218,6.0,11.0,26,0.00,,,0.00,VWS V14.01,2013-10-09 08:58:00,
2013-10-09 02:00:00,68.5,32.3,29.68,SSW,196,4.0,11.0,26,0.00,,,0.00,VWS V14.01,2013-10-09 09:00:00,
2013-10-09 02:03:00,68.2,32.0,29.68,SW,229,2.0,8.0,26,0.00,,,0.00,VWS V14.01,2013-10-09 09:03:00,
2013-10-09 02:05:00,68.1,32.0,29.68,SW,222,2.0,8.0,26,0.00,,,0.00,VWS V14.01,2013-10-09 09:05:00,
2013-10-09 02:08:00,67.9,31.8,29.68,SW,217,8.0,9.0,26,0.00,,,0.00,VWS V14.01,2013-10-09 09:08:00,
2013-10-09 02:10:00,68.0,31.9,29.68,SSW,209,5.0,9.0,26,0.00,,,0.00,VWS V14.01,2013-10-09 09:10:00,
2013-10-09 02:13:00,67.9,31.8,29.68,SSW,200,3.0,8.0,26,0.00,,,0.00,VWS V14.01,2013-10-09 09:13:00,
2013-10-09 02:15:00,67.9,31.8,29.68,SSW,213,0.0,8.0,26,0.00,,,0.00,VWS V14.01,2013-10-09 09:15:00,
2013-10-09 02:18:00,67.9,31.8,29.68,SSW,193,1.0,7.0,26,0.00,,,0.00,VWS V14.01,2013-10-09 09:18:00,
2013-10-09 02:20:00,67.7,31.6,29.67,SW,219,10.0,10.0,26,0.00,,,0.00,VWS V14.01,2013-10-09 09:20:00,
2013-10-09 02:23:00,67.8,32.6,29.67,SW,219,1.0,10.0,27,0.00,,,0.00,VWS V14.01,2013-10-09 09:23:00,
2013-10-09 02:25:00,67.9,32.7,29.67,SSW,207,3.0,10.0,27,0.00,,,0.00,VWS V14.01,2013-10-09 09:25:00,
2013-10-09 02:28:00,67.9,32.7,29.67,South,188,6.0,7.0,27,0.00,,,0.00,VWS V14.01,2013-10-09 09:28:00,
2013-10-09 02:30:00,68.0,32.8,29.67,SSE,162,7.0,10.0,27,0.00,,,0.00,VWS V14.01,2013-10-09 09:30:00,
2013-10-09 02:33:00,68.2,33.0,29.67,SW,215,11.0,11.0,27,0.00,,,0.00,VWS V14.01,2013-10-09 09:33:00,
2013-10-09 02:35:00,68.4,33.1,29.67,SSW,192,8.0,13.0,27,0.00,,,0.00,VWS V14.01,2013-10-09 09:35:00,
2013-10-09 02:38:00,68.8,33.5,29.67,SSW,200,6.0,11.0,27,0.00,,,0.00,VWS V14.01,2013-10-09 09:38:00,
2013-10-09 02:40:00,69.0,33.7,29.67,SSE,166,1.0,11.0,27,0.00,,,0.00,VWS V14.01,2013-10-09 09:40:00,
2013-10-09 02:43:00,69.1,33.7,29.67,SSW,199,10.0,15.0,27,0.00,,,0.00,VWS V14.01,2013-10-09 09:43:00,
2013-10-09 02:45:00,69.2,33.8,29.67,SSW,192,5.0,15.0,27,0.00,,,0.00,VWS V14.01,2013-10-09 09:45:00,
2013-10-09 02:48:00,69.2,33.8,29.67,SSW,192,3.0,10.0,27,0.00,,,0.00,VWS V14.01,2013-10-09 09:48:00,
2013-10-09 02:50:00,69.3,34.8,29.67,SW,218,5.0,13.0,28,0.00,,,0.00,VWS V14.01,2013-10-09 09:50:00,
2013-10-09 02:53:00,69.1,33.7,29.66,SW,223,7.0,13.0,27,0.00,,,0.00,VWS V14.01,2013-10-09 09:53:00,
2013-10-09 02:55:00,69.0,33.7,29.66,SSW,206,8.0,13.0,27,0.00,,,0.00,VWS V14.01,2013-10-09 09:55:00,
2013-10-09 02:58:00,68.7,34.3,29.66,SW,219,6.0,11.0,28,0.00,,,0.00,VWS V14.01,2013-10-09 09:58:00,
2013-10-09 03:00:00,68.8,34.4,29.67,SSW,207,12.0,13.0,28,0.00,,,0.00,VWS V14.01,2013-10-09 10:00:00,
2013-10-09 03:03:00,68.9,34.5,29.66,South,178,6.0,12.0,28,0.00,,,0.00,VWS V14.01,2013-10-09 10:03:00,
2013-10-09 03:05:00,69.0,34.6,29.67,SW,229,4.0,14.0,28,0.00,,,0.00,VWS V14.01,2013-10-09 10:05:00,
2013-10-09 03:08:00,68.9,34.5,29.66,SSW,201,4.0,15.0,28,0.00,,,0.00,VWS V14.01,2013-10-09 10:08:00,
2013-10-09 03:10:00,68.9,34.5,29.67,South,186,4.0,15.0,28,0.00,,,0.00,VWS V14.01,2013-10-09 10:10:00,
2013-10-09 03:13:00,68.8,34.4,29.67,SW,233,10.0,12.0,28,0.00,,,0.00,VWS V14.01,2013-10-09 10:13:00,
2013-10-09 03:15:00,68.8,34.4,29.66,SSW,202,8.0,12.0,28,0.00,,,0.00,VWS V14.01,2013-10-09 10:15:00,
2013-10-09 03:18:00,68.9,34.5,29.67,SSW,203,9.0,13.0,28,0.00,,,0.00,VWS V14.01,2013-10-09 10:18:00,
2013-10-09 03:20:00,68.9,34.5,29.66,SSW,198,9.0,13.0,28,0.00,,,0.00,VWS V14.01,2013-10-09 10:20:00,
2013-10-09 03:23:00,68.9,34.5,29.66,South,184,5.0,10.0,28,0.00,,,0.00,VWS V14.01,2013-10-09 10:23:00,
2013-10-09 03:25:00,68.8,34.4,29.66,SSW,194,8.0,10.0,28,0.00,,,0.00,VWS V14.01,2013-10-09 10:25:00,
2013-10-09 03:28:00,68.8,34.4,29.66,South,173,15.0,15.0,28,0.00,,,0.00,VWS V14.01,2013-10-09 10:28:00,
2013-10-09 03:30:00,68.9,34.5,29.66,SSW,198,5.0,15.0,28,0.00,,,0.00,VWS V14.01,2013-10-09 10:30:00,
2013-10-09 03:33:00,68.8,34.4,29.66,SSW,209,9.0,12.0,28,0.00,,,0.00,VWS V14.01,2013-10-09 10:33:00,
2013-10-09 03:35:00,68.7,34.3,29.66,SSW,195,8.0,12.0,28,0.00,,,0.00,VWS V14.01,2013-10-09 10:35:00,
2013-10-09 03:38:00,68.8,34.4,29.66,SW,233,4.0,12.0,28,0.00,,,0.00,VWS V14.01,2013-10-09 10:38:00,
2013-10-09 03:40:00,68.7,34.3,29.66,South,185,7.0,12.0,28,0.00,,,0.00,VWS V14.01,2013-10-09 10:40:00,
2013-10-09 03:43:00,68.5,35.0,29.66,SW,222,8.0,10.0,29,0.00,,,0.00,VWS V14.01,2013-10-09 10:43:00,
2013-10-09 03:45:00,68.5,35.0,29.66,SSW,213,5.0,10.0,29,0.00,,,0.00,VWS V14.01,2013-10-09 10:45:00,
2013-10-09 03:48:00,68.4,34.9,29.66,SW,226,7.0,9.0,29,0.00,,,0.00,VWS V14.01,2013-10-09 10:48:00,
2013-10-09 03:50:00,68.4,34.9,29.66,SW,217,9.0,9.0,29,0.00,,,0.00,VWS V14.01,2013-10-09 10:50:00,
2013-10-09 03:53:00,68.3,34.8,29.66,SSW,209,8.0,9.0,29,0.00,,,0.00,VWS V14.01,2013-10-09 10:53:00,
2013-10-09 03:55:00,68.1,34.7,29.66,SSW,196,2.0,9.0,29,0.00,,,0.00,VWS V14.01,2013-10-09 10:55:00,
2013-10-09 03:58:00,68.2,34.8,29.66,SSW,197,6.0,11.0,29,0.00,,,0.00,VWS V14.01,2013-10-09 10:58:00,
2013-10-09 04:00:00,68.2,34.8,29.66,SSW,208,2.0,11.0,29,0.00,,,0.00,VWS V14.01,2013-10-09 11:00:00,
2013-10-09 04:03:00,68.4,34.9,29.66,SSW,213,1.0,16.0,29,0.00,,,0.00,VWS V14.01,2013-10-09 11:03:00,
2013-10-09 04:05:00,68.5,35.0,29.66,SW,221,3.0,16.0,29,0.00,,,0.00,VWS V14.01,2013-10-09 11:05:00,
2013-10-09 04:08:00,68.3,34.8,29.66,SSW,209,6.0,16.0,29,0.00,,,0.00,VWS V14.01,2013-10-09 11:08:00,
2013-10-09 04:10:00,68.3,34.8,29.65,SW,224,5.0,16.0,29,0.00,,,0.00,VWS V14.01,2013-10-09 11:10:00,
2013-10-09 04:13:00,68.2,34.8,29.65,SSW,193,6.0,9.0,29,0.00,,,0.00,VWS V14.01,2013-10-09 11:13:00,
2013-10-09 04:15:00,68.0,34.6,29.65,South,187,5.0,10.0,29,0.00,,,0.00,VWS V14.01,2013-10-09 11:15:00,
2013-10-09 04:18:00,68.0,34.6,29.66,SW,218,8.0,10.0,29,0.00,,,0.00,VWS V14.01,2013-10-09 11:18:00,
2013-10-09 04:20:00,68.0,34.6,29.66,SW,225,8.0,12.0,29,0.00,,,0.00,VWS V14.01,2013-10-09 11:20:00,
2013-10-09 04:23:00,67.9,34.5,29.66,SW,217,4.0,9.0,29,0.00,,,0.00,VWS V14.01,2013-10-09 11:23:00,
2013-10-09 04:25:00,67.9,34.5,29.65,SW,221,9.0,11.0,29,0.00,,,0.00,VWS V14.01,2013-10-09 11:25:00,
2013-10-09 04:28:00,68.0,34.6,29.65,South,185,5.0,14.0,29,0.00,,,0.00,VWS V14.01,2013-10-09 11:28:00,
2013-10-09 04:30:00,68.0,34.6,29.65,South,171,11.0,14.0,29,0.00,,,0.00,VWS V14.01,2013-10-09 11:30:00,
2013-10-09 04:33:00,67.9,34.5,29.65,SW,220,6.0,11.0,29,0.00,,,0.00,VWS V14.01,2013-10-09 11:33:00,
2013-10-09 04:35:00,68.0,34.6,29.65,SSW,194,7.0,11.0,29,0.00,,,0.00,VWS V14.01,2013-10-09 11:35:00,
2013-10-09 04:38:00,68.0,34.6,29.65,SSW,194,5.0,10.0,29,0.00,,,0.00,VWS V14.01,2013-10-09 11:38:00,
2013-10-09 04:40:00,68.1,33.8,29.65,SSW,204,7.0,13.0,28,0.00,,,0.00,VWS V14.01,2013-10-09 11:40:00,
2013-10-09 04:43:00,68.2,33.9,29.65,SW,224,6.0,13.0,28,0.00,,,0.00,VWS V14.01,2013-10-09 11:43:00,
2013-10-09 04:45:00,68.3,34.0,29.65,SSW,199,7.0,13.0,28,0.00,,,0.00,VWS V14.01,2013-10-09 11:45:00,
2013-10-09 04:48:00,68.4,34.0,29.65,SW,230,7.0,15.0,28,0.00,,,0.00,VWS V14.01,2013-10-09 11:48:00,
2013-10-09 04:50:00,68.4,33.1,29.65,SSW,196,6.0,15.0,27,0.00,,,0.00,VWS V14.01,2013-10-09 11:50:00,
2013-10-09 04:53:00,68.4,33.1,29.65,SW,219,11.0,11.0,27,0.00,,,0.00,VWS V14.01,2013-10-09 11:53:00,
2013-10-09 04:55:00,68.4,33.1,29.65,SSW,210,8.0,11.0,27,0.00,,,0.00,VWS V14.01,2013-10-09 11:55:00,
2013-10-09 04:58:00,68.4,33.1,29.65,SW,221,7.0,15.0,27,0.00,,,0.00,VWS V14.01,2013-10-09 11:58:00,
2013-10-09 05:00:00,68.6,32.4,29.65,South,188,9.0,15.0,26,0.00,,,0.00,VWS V14.01,2013-10-09 12:00:00,
2013-10-09 05:03:00,68.8,32.5,29.65,SW,215,8.0,11.0,26,0.00,,,0.00,VWS V14.01,2013-10-09 12:03:00,
2013-10-09 05:05:00,68.9,32.6,29.65,SSW,201,8.0,13.0,26,0.00,,,0.00,VWS V14.01,2013-10-09 12:05:00,
2013-10-09 05:08:00,69.0,32.7,29.65,SSE,167,8.0,12.0,26,0.00,,,0.00,VWS V14.01,2013-10-09 12:08:00,
2013-10-09 05:10:00,69.1,31.8,29.65,SSW,192,11.0,14.0,25,0.00,,,0.00,VWS V14.01,2013-10-09 12:10:00,
2013-10-09 05:13:00,69.3,32.0,29.64,SSE,163,9.0,14.0,25,0.00,,,0.00,VWS V14.01,2013-10-09 12:13:00,
2013-10-09 05:15:00,69.4,32.1,29.64,SW,221,3.0,14.0,25,0.00,,,0.00,VWS V14.01,2013-10-09 12:15:00,
2013-10-09 05:18:00,69.4,32.1,29.65,South,185,8.0,13.0,25,0.00,,,0.00,VWS V14.01,2013-10-09 12:18:00,
2013-10-09 05:20:00,69.4,32.1,29.65,SSW,205,6.0,14.0,25,0.00,,,0.00,VWS V14.01,2013-10-09 12:20:00,
2013-10-09 05:23:00,69.4,32.1,29.65,South,181,6.0,17.0,25,0.00,,,0.00,VWS V14.01,2013-10-09 12:23:00,
2013-10-09 05:25:00,69.4,32.1,29.64,South,191,5.0,17.0,25,0.00,,,0.00,VWS V14.01,2013-10-09 12:25:00,
2013-10-09 05:28:00,69.5,32.2,29.64,SW,227,8.0,15.0,25,0.00,,,0.00,VWS V14.01,2013-10-09 12:28:00,
2013-10-09 05:30:00,69.7,32.3,29.65,SW,217,12.0,18.0,25,0.00,,,0.00,VWS V14.01,2013-10-09 12:30:00,
2013-10-09 05:33:00,69.8,32.4,29.64,SW,215,1.0,12.0,25,0.00,,,0.00,VWS V14.01,2013-10-09 12:33:00,
2013-10-09 05:35:00,69.7,32.3,29.64,SW,215,5.0,12.0,25,0.00,,,0.00,VWS V14.01,2013-10-09 12:35:00,
2013-10-09 05:38:00,69.4,32.1,29.64,SSW,210,4.0,11.0,25,0.00,,,0.00,VWS V14.01,2013-10-09 12:38:00,
2013-10-09 05:40:00,69.2,32.9,29.64,SW,217,5.0,11.0,26,0.00,,,0.00,VWS V14.01,2013-10-09 12:40:00,
2013-10-09 05:43:00,69.0,32.7,29.64,SSW,213,5.0,9.0,26,0.00,,,0.00,VWS V14.01,2013-10-09 12:43:00,
2013-10-09 05:53:00,68.5,32.3,29.64,SW,226,6.0,8.0,26,0.00,,,0.00,VWS V14.01,2013-10-09 12:53:00,
2013-10-09 06:03:00,68.8,33.5,29.64,SSW,196,4.0,10.0,27,0.00,,,0.00,VWS V14.01,2013-10-09 13:03:00,
2013-10-09 06:08:00,69.2,32.9,29.64,SW,232,4.0,12.0,26,0.00,,,0.00,VWS V14.01,2013-10-09 13:08:00,
2013-10-09 06:13:00,69.4,34.0,29.64,South,188,6.0,11.0,27,0.00,,,0.00,VWS V14.01,2013-10-09 13:13:00,
2013-10-09 06:18:00,69.0,32.7,29.64,SW,217,5.0,10.0,26,0.00,,,0.00,VWS V14.01,2013-10-09 13:18:00,
2013-10-09 06:20:00,70.1,33.7,29.64,South,187,4.0,13.0,26,0.00,,,0.00,VWS V14.01,2013-10-09 13:20:00,
2013-10-09 06:23:00,68.7,32.5,29.64,SW,217,5.0,10.0,26,0.00,,,0.00,VWS V14.01,2013-10-09 13:23:00,
2013-10-09 06:28:00,68.5,33.2,29.64,SSW,202,5.0,12.0,27,0.00,,,0.00,VWS V14.01,2013-10-09 13:28:00,
2013-10-09 06:33:00,68.6,33.3,29.64,SSW,213,9.0,9.0,27,0.00,,,0.00,VWS V14.01,2013-10-09 13:33:00,
2013-10-09 06:35:00,71.3,34.7,29.65,SW,217,8.0,13.0,26,0.00,,,0.00,VWS V14.01,2013-10-09 13:35:00,
2013-10-09 06:38:00,68.9,33.6,29.64,South,181,5.0,12.0,27,0.00,,,0.00,VWS V14.01,2013-10-09 13:38:00,
2013-10-09 06:43:00,69.3,33.0,29.64,South,178,9.0,12.0,26,0.00,,,0.00,VWS V14.01,2013-10-09 13:43:00,
2013-10-09 06:48:00,69.6,34.2,29.64,South,188,6.0,14.0,27,0.00,,,0.00,VWS V14.01,2013-10-09 13:48:00,
2013-10-09 06:50:00,72.0,34.3,29.65,SSW,205,8.0,19.0,25,0.00,,,0.00,VWS V14.01,2013-10-09 13:50:00,
2013-10-09 06:53:00,72.3,34.5,29.65,South,186,15.0,20.0,25,0.00,,,0.00,VWS V14.01,2013-10-09 13:53:00,
2013-10-09 06:58:00,70.4,34.9,29.64,South,187,7.0,18.0,27,0.00,,,0.00,VWS V14.01,2013-10-09 13:58:00,
2013-10-09 07:03:00,71.0,34.4,29.65,SW,225,5.0,18.0,26,0.00,,,0.00,VWS V14.01,2013-10-09 14:03:00,
2013-10-09 07:05:00,72.8,35.0,29.65,SSW,209,4.0,16.0,25,0.00,,,0.00,VWS V14.01,2013-10-09 14:05:00,
2013-10-09 07:08:00,72.8,35.0,29.65,SW,216,5.0,15.0,25,0.00,,,0.00,VWS V14.01,2013-10-09 14:08:00,
2013-10-09 07:10:00,72.8,35.0,29.65,South,182,6.0,15.0,25,0.00,,,0.00,VWS V14.01,2013-10-09 14:10:00,
2013-10-09 07:13:00,71.5,34.8,29.65,SSW,194,11.0,15.0,26,0.00,,,0.00,VWS V14.01,2013-10-09 14:13:00,
2013-10-09 07:15:00,73.0,35.1,29.66,SSW,199,9.0,14.0,25,0.00,,,0.00,VWS V14.01,2013-10-09 14:15:00,
2013-10-09 07:18:00,71.8,34.1,29.65,SSW,192,6.0,15.0,25,0.00,,,0.00,VWS V14.01,2013-10-09 14:18:00,
2013-10-09 07:20:00,73.3,34.4,29.66,SSW,208,7.0,16.0,24,0.00,,,0.00,VWS V14.01,2013-10-09 14:20:00,
2013-10-09 07:23:00,73.5,35.6,29.66,SW,225,5.0,11.0,25,0.00,,,0.00,VWS V14.01,2013-10-09 14:23:00,
2013-10-09 07:25:00,73.6,34.6,29.66,South,188,4.0,11.0,24,0.00,,,0.00,VWS V14.01,2013-10-09 14:25:00,
2013-10-09 07:28:00,72.5,34.7,29.65,SSW,194,12.0,20.0,25,0.00,,,0.00,VWS V14.01,2013-10-09 14:28:00,
2013-10-09 07:30:00,74.1,34.0,29.66,South,188,8.0,22.0,23,0.00,,,0.00,VWS V14.01,2013-10-09 14:30:00,
2013-10-09 07:33:00,72.6,34.8,29.65,WSW,237,9.0,15.0,25,0.00,,,0.00,VWS V14.01,2013-10-09 14:33:00,
2013-10-09 07:35:00,74.1,34.0,29.66,SSW,202,13.0,17.0,23,0.00,,,0.00,VWS V14.01,2013-10-09 14:35:00,
2013-10-09 07:38:00,74.2,34.1,29.66,South,191,15.0,19.0,23,0.00,,,0.00,VWS V14.01,2013-10-09 14:38:00,
2013-10-09 07:40:00,74.2,34.1,29.66,SE,141,14.0,19.0,23,0.00,,,0.00,VWS V14.01,2013-10-09 14:40:00,
2013-10-09 07:43:00,74.2,34.1,29.67,SSW,199,16.0,19.0,23,0.00,,,0.00,VWS V14.01,2013-10-09 14:43:00,
2013-10-09 07:45:00,74.3,33.0,29.66,South,173,15.0,21.0,22,0.00,,,0.00,VWS V14.01,2013-10-09 14:45:00,
2013-10-09 07:48:00,74.4,33.1,29.66,SSW,212,12.0,22.0,22,0.00,,,0.00,VWS V14.01,2013-10-09 14:48:00,
2013-10-09 07:50:00,74.5,33.2,29.66,South,185,10.0,22.0,22,0.00,,,0.00,VWS V14.01,2013-10-09 14:50:00,
2013-10-09 07:53:00,74.7,33.4,29.66,SSW,198,9.0,23.0,22,0.00,,,0.00,VWS V14.01,2013-10-09 14:53:00,
2013-10-09 07:55:00,74.8,33.5,29.66,SW,223,13.0,23.0,22,0.00,,,0.00,VWS V14.01,2013-10-09 14:55:00,
2013-10-09 07:58:00,74.8,32.3,29.66,South,188,13.0,24.0,21,0.00,,,0.00,VWS V14.01,2013-10-09 14:58:00,
2013-10-09 08:00:00,74.8,32.3,29.66,SSE,160,11.0,24.0,21,0.00,,,0.00,VWS V14.01,2013-10-09 15:00:00,
2013-10-09 08:03:00,75.1,32.5,29.67,South,180,16.0,25.0,21,0.00,,,0.00,VWS V14.01,2013-10-09 15:03:00,
2013-10-09 08:05:00,75.0,32.5,29.67,South,184,14.0,25.0,21,0.00,,,0.00,VWS V14.01,2013-10-09 15:05:00,
2013-10-09 08:08:00,75.2,32.6,29.67,SSW,194,11.0,14.0,21,0.00,,,0.00,VWS V14.01,2013-10-09 15:08:00,
2013-10-09 08:10:00,75.3,33.9,29.67,SW,217,7.0,16.0,22,0.00,,,0.00,VWS V14.01,2013-10-09 15:10:00,
2013-10-09 08:13:00,75.5,32.9,29.67,South,179,13.0,19.0,21,0.00,,,0.00,VWS V14.01,2013-10-09 15:13:00,
2013-10-09 08:15:00,75.6,33.0,29.67,SW,223,10.0,21.0,21,0.00,,,0.00,VWS V14.01,2013-10-09 15:15:00,
2013-10-09 08:18:00,75.5,32.9,29.67,South,188,14.0,26.0,21,0.00,,,0.00,VWS V14.01,2013-10-09 15:18:00,
2013-10-09 08:20:00,75.4,32.8,29.67,South,179,13.0,26.0,21,0.00,,,0.00,VWS V14.01,2013-10-09 15:20:00,
2013-10-09 08:23:00,75.5,32.9,29.67,SW,220,13.0,20.0,21,0.00,,,0.00,VWS V14.01,2013-10-09 15:23:00,
2013-10-09 08:25:00,75.6,33.0,29.67,SSW,203,13.0,20.0,21,0.00,,,0.00,VWS V14.01,2013-10-09 15:25:00,
2013-10-09 08:28:00,76.1,33.4,29.67,SSW,213,16.0,18.0,21,0.00,,,0.00,VWS V14.01,2013-10-09 15:28:00,
2013-10-09 08:30:00,76.3,32.3,29.67,SW,215,7.0,19.0,20,0.00,,,0.00,VWS V14.01,2013-10-09 15:30:00,
2013-10-09 08:33:00,76.0,32.1,29.67,SW,226,15.0,22.0,20,0.00,,,0.00,VWS V14.01,2013-10-09 15:33:00,
2013-10-09 08:35:00,76.1,33.4,29.67,SW,220,7.0,22.0,21,0.00,,,0.00,VWS V14.01,2013-10-09 15:35:00,
2013-10-09 08:38:00,76.3,33.5,29.67,SW,228,8.0,21.0,21,0.00,,,0.00,VWS V14.01,2013-10-09 15:38:00,
2013-10-09 08:40:00,76.5,33.7,29.67,South,184,12.0,21.0,21,0.00,,,0.00,VWS V14.01,2013-10-09 15:40:00,
2013-10-09 08:43:00,76.7,32.7,29.67,South,181,9.0,24.0,20,0.00,,,0.00,VWS V14.01,2013-10-09 15:43:00,
2013-10-09 08:45:00,76.8,32.7,29.67,South,189,15.0,24.0,20,0.00,,,0.00,VWS V14.01,2013-10-09 15:45:00,
2013-10-09 08:48:00,76.7,32.7,29.67,SSW,202,10.0,21.0,20,0.00,,,0.00,VWS V14.01,2013-10-09 15:48:00,
2013-10-09 08:50:00,76.6,33.8,29.67,SW,218,14.0,21.0,21,0.00,,,0.00,VWS V14.01,2013-10-09 15:50:00,
2013-10-09 08:53:00,77.1,33.0,29.67,SSW,213,8.0,19.0,20,0.00,,,0.00,VWS V14.01,2013-10-09 15:53:00,
2013-10-09 08:55:00,77.2,33.1,29.67,SSW,198,9.0,19.0,20,0.00,,,0.00,VWS V14.01,2013-10-09 15:55:00,
2013-10-09 08:58:00,77.1,34.2,29.67,South,175,6.0,21.0,21,0.00,,,0.00,VWS V14.01,2013-10-09 15:58:00,
2013-10-09 09:00:00,77.3,33.1,29.67,South,188,8.0,21.0,20,0.00,,,0.00,VWS V14.01,2013-10-09 16:00:00,
2013-10-09 09:03:00,77.6,33.4,29.67,SSW,208,7.0,20.0,20,0.00,,,0.00,VWS V14.01,2013-10-09 16:03:00,
2013-10-09 09:05:00,77.7,33.5,29.67,South,185,9.0,20.0,20,0.00,,,0.00,VWS V14.01,2013-10-09 16:05:00,
2013-10-09 09:08:00,78.0,33.7,29.67,SW,214,7.0,20.0,20,0.00,,,0.00,VWS V14.01,2013-10-09 16:08:00,
2013-10-09 09:10:00,78.0,33.7,29.67,SSW,194,15.0,20.0,20,0.00,,,0.00,VWS V14.01,2013-10-09 16:10:00,
2013-10-09 09:13:00,77.9,33.6,29.67,SE,131,11.0,21.0,20,0.00,,,0.00,VWS V14.01,2013-10-09 16:13:00,
2013-10-09 09:15:00,78.1,33.8,29.67,SSW,196,13.0,21.0,20,0.00,,,0.00,VWS V14.01,2013-10-09 16:15:00,
2013-10-09 09:18:00,78.5,34.1,29.67,South,190,3.0,17.0,20,0.00,,,0.00,VWS V14.01,2013-10-09 16:18:00,
2013-10-09 09:20:00,78.6,34.2,29.67,South,186,7.0,18.0,20,0.00,,,0.00,VWS V14.01,2013-10-09 16:20:00,
2013-10-09 09:23:00,78.9,34.5,29.67,SSW,202,11.0,17.0,20,0.00,,,0.00,VWS V14.01,2013-10-09 16:23:00,
2013-10-09 09:25:00,79.2,34.7,29.67,SSW,202,15.0,18.0,20,0.00,,,0.00,VWS V14.01,2013-10-09 16:25:00,
2013-10-09 09:28:00,79.1,33.3,29.67,SSW,193,15.0,26.0,19,0.00,,,0.00,VWS V14.01,2013-10-09 16:28:00,
2013-10-09 09:30:00,79.1,33.3,29.67,South,190,15.0,26.0,19,0.00,,,0.00,VWS V14.01,2013-10-09 16:30:00,
2013-10-09 09:33:00,79.2,33.4,29.67,South,184,21.0,24.0,19,0.00,,,0.00,VWS V14.01,2013-10-09 16:33:00,
2013-10-09 09:35:00,79.1,33.3,29.67,SSW,198,19.0,24.0,19,0.00,,,0.00,VWS V14.01,2013-10-09 16:35:00,
2013-10-09 09:38:00,79.4,33.6,29.67,SSW,192,12.0,26.0,19,0.00,,,0.00,VWS V14.01,2013-10-09 16:38:00,
2013-10-09 09:40:00,79.3,33.5,29.67,SSE,158,13.0,28.0,19,0.00,,,0.00,VWS V14.01,2013-10-09 16:40:00,
2013-10-09 09:43:00,79.6,33.8,29.67,South,175,22.0,26.0,19,0.00,,,0.00,VWS V14.01,2013-10-09 16:43:00,
2013-10-09 09:45:00,79.8,33.9,29.67,SSE,166,12.0,26.0,19,0.00,,,0.00,VWS V14.01,2013-10-09 16:45:00,
2013-10-09 09:48:00,80.0,34.1,29.67,SE,126,7.0,22.0,19,0.00,,,0.00,VWS V14.01,2013-10-09 16:48:00,
2013-10-09 09:50:00,80.2,34.2,29.67,SSW,213,11.0,22.0,19,0.00,,,0.00,VWS V14.01,2013-10-09 16:50:00,
2013-10-09 09:53:00,80.7,33.3,29.67,South,180,14.0,24.0,18,0.00,,,0.00,VWS V14.01,2013-10-09 16:53:00,
2013-10-09 09:55:00,80.5,33.1,29.67,SSW,204,24.0,24.0,18,0.00,,,0.00,VWS V14.01,2013-10-09 16:55:00,
2013-10-09 09:58:00,80.0,34.1,29.66,SSW,210,12.0,25.0,19,0.00,,,0.00,VWS V14.01,2013-10-09 16:58:00,
2013-10-09 10:00:00,80.4,34.4,29.66,SSW,211,13.0,25.0,19,0.00,,,0.00,VWS V14.01,2013-10-09 17:00:00,
2013-10-09 10:03:00,80.3,33.0,29.66,SSW,206,16.0,22.0,18,0.00,,,0.00,VWS V14.01,2013-10-09 17:03:00,
2013-10-09 10:05:00,80.4,33.1,29.66,SE,146,12.0,32.0,18,0.00,,,0.00,VWS V14.01,2013-10-09 17:05:00,
2013-10-09 10:08:00,80.5,34.5,29.66,SSE,157,13.0,22.0,19,0.00,,,0.00,VWS V14.01,2013-10-09 17:08:00,
2013-10-09 10:10:00,80.6,34.6,29.67,SSW,198,17.0,24.0,19,0.00,,,0.00,VWS V14.01,2013-10-09 17:10:00,
2013-10-09 10:13:00,80.7,33.3,29.66,South,188,12.0,19.0,18,0.00,,,0.00,VWS V14.01,2013-10-09 17:13:00,
2013-10-09 10:15:00,80.8,34.7,29.66,South,170,15.0,24.0,19,0.00,,,0.00,VWS V14.01,2013-10-09 17:15:00,
2013-10-09 10:18:00,80.9,33.5,29.66,South,185,9.0,23.0,18,0.00,,,0.00,VWS V14.01,2013-10-09 17:18:00,
2013-10-09 10:20:00,81.1,33.6,29.66,SE,141,7.0,23.0,18,0.00,,,0.00,VWS V14.01,2013-10-09 17:20:00,
2013-10-09 10:23:00,81.2,33.7,29.66,South,184,10.0,21.0,18,0.00,,,0.00,VWS V14.01,2013-10-09 17:23:00,
2013-10-09 10:25:00,81.1,33.6,29.66,SSW,199,15.0,21.0,18,0.00,,,0.00,VWS V14.01,2013-10-09 17:25:00,
2013-10-09 10:28:00,81.6,34.0,29.66,SE,135,10.0,19.0,18,0.00,,,0.00,VWS V14.01,2013-10-09 17:28:00,
2013-10-09 10:30:00,81.9,34.3,29.66,South,185,10.0,19.0,18,0.00,,,0.00,VWS V14.01,2013-10-09 17:30:00,
2013-10-09 10:33:00,81.9,34.3,29.66,SSE,162,13.0,18.0,18,0.00,,,0.00,VWS V14.01,2013-10-09 17:33:00,
2013-10-09 10:35:00,82.1,34.4,29.66,SE,143,14.0,19.0,18,0.00,,,0.00,VWS V14.01,2013-10-09 17:35:00,
2013-10-09 10:38:00,82.7,34.9,29.66,SE,146,9.0,18.0,18,0.00,,,0.00,VWS V14.01,2013-10-09 17:38:00,
2013-10-09 10:40:00,82.7,34.9,29.66,SSW,192,15.0,18.0,18,0.00,,,0.00,VWS V14.01,2013-10-09 17:40:00,
2013-10-09 10:43:00,82.3,34.6,29.66,SSE,160,12.0,17.0,18,0.00,,,0.00,VWS V14.01,2013-10-09 17:43:00,
2013-10-09 10:45:00,82.3,34.6,29.66,South,189,8.0,20.0,18,0.00,,,0.00,VWS V14.01,2013-10-09 17:45:00,
2013-10-09 10:48:00,81.2,33.7,29.66,SSE,164,10.0,20.0,18,0.00,,,0.00,VWS V14.01,2013-10-09 17:48:00,
2013-10-09 10:50:00,81.0,34.9,29.66,South,190,5.0,20.0,19,0.00,,,0.00,VWS V14.01,2013-10-09 17:50:00,
2013-10-09 10:53:00,81.3,35.1,29.65,South,184,12.0,20.0,19,0.00,,,0.00,VWS V14.01,2013-10-09 17:53:00,
2013-10-09 10:55:00,81.2,33.7,29.66,SSW,198,7.0,20.0,18,0.00,,,0.00,VWS V14.01,2013-10-09 17:55:00,
2013-10-09 10:58:00,80.7,34.7,29.66,SSE,156,14.0,22.0,19,0.00,,,0.00,VWS V14.01,2013-10-09 17:58:00,
2013-10-09 11:00:00,80.5,34.5,29.66,SW,228,7.0,22.0,19,0.00,,,0.00,VWS V14.01,2013-10-09 18:00:00,
2013-10-09 11:03:00,80.6,34.6,29.65,SW,229,12.0,16.0,19,0.00,,,0.00,VWS V14.01,2013-10-09 18:03:00,
2013-10-09 11:05:00,80.7,34.7,29.66,SW,219,8.0,16.0,19,0.00,,,0.00,VWS V14.01,2013-10-09 18:05:00,
2013-10-09 11:08:00,80.7,34.7,29.65,SSW,203,8.0,23.0,19,0.00,,,0.00,VWS V14.01,2013-10-09 18:08:00,
2013-10-09 11:10:00,80.7,34.7,29.65,SW,221,10.0,23.0,19,0.00,,,0.00,VWS V14.01,2013-10-09 18:10:00,
2013-10-09 11:13:00,80.4,34.4,29.65,South,171,8.0,17.0,19,0.00,,,0.00,VWS V14.01,2013-10-09 18:13:00,
2013-10-09 11:15:00,80.3,34.3,29.64,South,173,12.0,19.0,19,0.00,,,0.00,VWS V14.01,2013-10-09 18:15:00,
2013-10-09 11:18:00,80.6,34.6,29.65,SSW,209,12.0,21.0,19,0.00,,,0.00,VWS V14.01,2013-10-09 18:18:00,
2013-10-09 11:20:00,80.7,34.7,29.65,South,177,10.0,21.0,19,0.00,,,0.00,VWS V14.01,2013-10-09 18:20:00,
2013-10-09 11:23:00,81.1,35.0,29.65,South,184,5.0,14.0,19,0.00,,,0.00,VWS V14.01,2013-10-09 18:23:00,
2013-10-09 11:25:00,81.0,34.9,29.64,SSW,198,10.0,18.0,19,0.00,,,0.00,VWS V14.01,2013-10-09 18:25:00,
2013-10-09 11:28:00,80.8,34.7,29.64,South,169,12.0,19.0,19,0.00,,,0.00,VWS V14.01,2013-10-09 18:28:00,
2013-10-09 11:30:00,80.7,34.7,29.64,SSW,205,7.0,19.0,19,0.00,,,0.00,VWS V14.01,2013-10-09 18:30:00,
2013-10-09 11:33:00,80.8,34.7,29.64,South,186,16.0,24.0,19,0.00,,,0.00,VWS V14.01,2013-10-09 18:33:00,
2013-10-09 11:35:00,80.8,34.7,29.64,SSW,200,9.0,24.0,19,0.00,,,0.00,VWS V14.01,2013-10-09 18:35:00,
2013-10-09 11:38:00,80.9,34.8,29.64,South,184,11.0,20.0,19,0.00,,,0.00,VWS V14.01,2013-10-09 18:38:00,
2013-10-09 11:40:00,81.0,34.9,29.64,SSW,194,7.0,20.0,19,0.00,,,0.00,VWS V14.01,2013-10-09 18:40:00,
2013-10-09 11:43:00,81.5,35.3,29.64,SSW,192,14.0,21.0,19,0.00,,,0.00,VWS V14.01,2013-10-09 18:43:00,
2013-10-09 11:45:00,81.7,35.5,29.64,SSW,194,10.0,21.0,19,0.00,,,0.00,VWS V14.01,2013-10-09 18:45:00,
2013-10-09 11:48:00,81.6,35.4,29.63,SSW,202,10.0,24.0,19,0.00,,,0.00,VWS V14.01,2013-10-09 18:48:00,
2013-10-09 11:50:00,81.7,35.5,29.63,South,188,11.0,24.0,19,0.00,,,0.00,VWS V14.01,2013-10-09 18:50:00,
2013-10-09 11:53:00,82.5,36.1,29.63,South,186,14.0,16.0,19,0.00,,,0.00,VWS V14.01,2013-10-09 18:53:00,
2013-10-09 11:55:00,82.8,35.0,29.63,SSW,192,17.0,17.0,18,0.00,,,0.00,VWS V14.01,2013-10-09 18:55:00,
2013-10-09 11:58:00,83.0,35.2,29.63,SSW,196,14.0,17.0,18,0.00,,,0.00,VWS V14.01,2013-10-09 18:58:00,
2013-10-09 12:00:00,82.9,35.1,29.63,South,186,12.0,18.0,18,0.00,,,0.00,VWS V14.01,2013-10-09 19:00:00,
2013-10-09 12:03:00,82.3,34.6,29.62,SSW,196,16.0,21.0,18,0.00,,,0.00,VWS V14.01,2013-10-09 19:03:00,
2013-10-09 12:05:00,82.0,35.7,29.63,SSW,200,10.0,21.0,19,0.00,,,0.00,VWS V14.01,2013-10-09 19:05:00,
2013-10-09 12:08:00,81.4,35.2,29.63,SSW,196,11.0,21.0,19,0.00,,,0.00,VWS V14.01,2013-10-09 19:08:00,
2013-10-09 12:10:00,81.3,35.1,29.62,South,190,7.0,21.0,19,0.00,,,0.00,VWS V14.01,2013-10-09 19:10:00,
2013-10-09 12:13:00,81.2,35.1,29.62,South,169,16.0,19.0,19,0.00,,,0.00,VWS V14.01,2013-10-09 19:13:00,
2013-10-09 12:15:00,81.2,35.1,29.62,South,173,11.0,19.0,19,0.00,,,0.00,VWS V14.01,2013-10-09 19:15:00,
2013-10-09 12:18:00,81.2,35.1,29.62,SW,214,13.0,17.0,19,0.00,,,0.00,VWS V14.01,2013-10-09 19:18:00,
2013-10-09 12:20:00,81.4,35.2,29.62,SE,137,18.0,18.0,19,0.00,,,0.00,VWS V14.01,2013-10-09 19:20:00,
2013-10-09 12:23:00,81.3,35.1,29.62,SW,215,7.0,21.0,19,0.00,,,0.00,VWS V14.01,2013-10-09 19:23:00,
2013-10-09 12:25:00,81.3,35.1,29.61,South,184,14.0,21.0,19,0.00,,,0.00,VWS V14.01,2013-10-09 19:25:00,
2013-10-09 12:28:00,81.8,35.5,29.61,SW,225,15.0,18.0,19,0.00,,,0.00,VWS V14.01,2013-10-09 19:28:00,
2013-10-09 12:30:00,81.8,35.5,29.61,SSW,202,13.0,18.0,19,0.00,,,0.00,VWS V14.01,2013-10-09 19:30:00,
2013-10-09 12:33:00,81.5,35.3,29.61,South,190,12.0,21.0,19,0.00,,,0.00,VWS V14.01,2013-10-09 19:33:00,
2013-10-09 12:35:00,81.6,35.4,29.61,SSW,203,17.0,21.0,19,0.00,,,0.00,VWS V14.01,2013-10-09 19:35:00,
2013-10-09 12:38:00,81.8,34.2,29.61,SSW,199,7.0,19.0,18,0.00,,,0.00,VWS V14.01,2013-10-09 19:38:00,
2013-10-09 12:40:00,82.0,35.7,29.61,SSW,195,18.0,19.0,19,0.00,,,0.00,VWS V14.01,2013-10-09 19:40:00,
2013-10-09 12:43:00,82.0,32.9,29.61,SSW,212,15.0,20.0,17,0.00,,,0.00,VWS V14.01,2013-10-09 19:43:00,
2013-10-09 12:45:00,82.0,32.9,29.61,SW,218,21.0,21.0,17,0.00,,,0.00,VWS V14.01,2013-10-09 19:45:00,
2013-10-09 12:48:00,81.7,32.7,29.61,SSW,196,13.0,24.0,17,0.00,,,0.00,VWS V14.01,2013-10-09 19:48:00,
2013-10-09 12:50:00,81.7,34.1,29.60,South,183,7.0,24.0,18,0.00,,,0.00,VWS V14.01,2013-10-09 19:50:00,
2013-10-09 12:53:00,82.1,33.0,29.61,SW,227,19.0,21.0,17,0.00,,,0.00,VWS V14.01,2013-10-09 19:53:00,
2013-10-09 12:55:00,82.0,31.4,29.60,SSW,194,7.0,21.0,16,0.00,,,0.00,VWS V14.01,2013-10-09 19:55:00,
2013-10-09 12:58:00,82.7,33.5,29.60,SSW,213,7.0,14.0,17,0.00,,,0.00,VWS V14.01,2013-10-09 19:58:00,
2013-10-09 13:00:00,83.0,33.7,29.60,ESE,111,21.0,21.0,17,0.00,,,0.00,VWS V14.01,2013-10-09 20:00:00,
2013-10-09 13:03:00,82.6,34.8,29.60,SW,223,14.0,21.0,18,0.00,,,0.00,VWS V14.01,2013-10-09 20:03:00,
2013-10-09 13:05:00,82.4,34.7,29.60,SSW,205,6.0,21.0,18,0.00,,,0.00,VWS V14.01,2013-10-09 20:05:00,
2013-10-09 13:08:00,83.3,34.0,29.60,SSW,206,19.0,22.0,17,0.00,,,0.00,VWS V14.01,2013-10-09 20:08:00,
2013-10-09 13:10:00,83.7,34.3,29.60,SSW,195,14.0,22.0,17,0.00,,,0.00,VWS V14.01,2013-10-09 20:10:00,
2013-10-09 13:13:00,84.8,35.2,29.60,SSW,207,15.0,18.0,17,0.00,,,0.00,VWS V14.01,2013-10-09 20:13:00,
2013-10-09 13:15:00,85.0,36.8,29.60,SSW,204,16.0,18.0,18,0.00,,,0.00,VWS V14.01,2013-10-09 20:15:00,
2013-10-09 13:18:00,84.6,36.5,29.60,SSW,193,9.0,16.0,18,0.00,,,0.00,VWS V14.01,2013-10-09 20:18:00,
2013-10-09 13:20:00,84.7,36.5,29.59,WSW,250,16.0,23.0,18,0.00,,,0.00,VWS V14.01,2013-10-09 20:20:00,
2013-10-09 13:23:00,85.4,37.1,29.59,SSW,204,7.0,22.0,18,0.00,,,0.00,VWS V14.01,2013-10-09 20:23:00,
2013-10-09 13:25:00,85.8,37.4,29.59,South,173,10.0,22.0,18,0.00,,,0.00,VWS V14.01,2013-10-09 20:25:00,
2013-10-09 13:28:00,85.5,37.2,29.59,South,172,14.0,20.0,18,0.00,,,0.00,VWS V14.01,2013-10-09 20:28:00,
2013-10-09 13:30:00,85.5,37.2,29.59,SSW,202,6.0,20.0,18,0.00,,,0.00,VWS V14.01,2013-10-09 20:30:00,
2013-10-09 13:33:00,85.4,38.5,29.59,South,184,17.0,22.0,19,0.00,,,0.00,VWS V14.01,2013-10-09 20:33:00,
2013-10-09 13:35:00,85.0,38.2,29.59,SSW,195,11.0,22.0,19,0.00,,,0.00,VWS V14.01,2013-10-09 20:35:00,
2013-10-09 13:38:00,85.2,38.3,29.59,SSE,161,17.0,18.0,19,0.00,,,0.00,VWS V14.01,2013-10-09 20:38:00,
2013-10-09 13:40:00,85.3,38.4,29.59,SSE,152,8.0,24.0,19,0.00,,,0.00,VWS V14.01,2013-10-09 20:40:00,
2013-10-09 13:43:00,85.0,38.2,29.59,South,176,14.0,22.0,19,0.00,,,0.00,VWS V14.01,2013-10-09 20:43:00,
2013-10-09 13:45:00,84.6,37.8,29.58,SSW,201,20.0,22.0,19,0.00,,,0.00,VWS V14.01,2013-10-09 20:45:00,
2013-10-09 13:48:00,83.6,38.3,29.58,SSW,202,7.0,22.0,20,0.00,,,0.00,VWS V14.01,2013-10-09 20:48:00,
2013-10-09 13:50:00,83.3,38.1,29.58,SW,215,6.0,22.0,20,0.00,,,0.00,VWS V14.01,2013-10-09 20:50:00,
2013-10-09 13:54:00,82.7,38.8,29.58,South,171,12.0,20.0,21,0.00,,,0.00,VWS V14.01,2013-10-09 20:54:00,
2013-10-09 13:55:00,82.8,40.1,29.58,SSW,194,6.0,20.0,22,0.00,,,0.00,VWS V14.01,2013-10-09 20:55:00,
2013-10-09 13:59:00,83.4,39.4,29.58,SW,218,7.0,23.0,21,0.00,,,0.00,VWS V14.01,2013-10-09 20:59:00,
2013-10-09 14:00:00,83.4,39.4,29.58,South,177,16.0,23.0,21,0.00,,,0.00,VWS V14.01,2013-10-09 21:00:00,
2013-10-09 14:04:00,82.7,38.8,29.58,SSW,196,19.0,19.0,21,0.00,,,0.00,VWS V14.01,2013-10-09 21:04:00,
2013-10-09 14:05:00,82.5,38.7,29.58,South,189,14.0,19.0,21,0.00,,,0.00,VWS V14.01,2013-10-09 21:05:00,
2013-10-09 14:09:00,82.4,39.8,29.58,South,177,9.0,24.0,22,0.00,,,0.00,VWS V14.01,2013-10-09 21:09:00,
2013-10-09 14:10:00,82.4,39.8,29.58,SSW,199,5.0,24.0,22,0.00,,,0.00,VWS V14.01,2013-10-09 21:10:00,
2013-10-09 14:14:00,82.7,38.8,29.58,SSE,156,12.0,19.0,21,0.00,,,0.00,VWS V14.01,2013-10-09 21:14:00,
2013-10-09 14:15:00,82.7,38.8,29.58,SSW,207,18.0,19.0,21,0.00,,,0.00,VWS V14.01,2013-10-09 21:15:00,
2013-10-09 14:19:00,82.1,37.1,29.58,East,101,19.0,19.0,20,0.00,,,0.00,VWS V14.01,2013-10-09 21:19:00,
2013-10-09 14:20:00,82.0,37.0,29.57,SE,145,13.0,26.0,20,0.00,,,0.00,VWS V14.01,2013-10-09 21:20:00,
2013-10-09 14:24:00,81.7,38.0,29.57,SSW,200,13.0,22.0,21,0.00,,,0.00,VWS V14.01,2013-10-09 21:24:00,
2013-10-09 14:25:00,81.8,38.1,29.57,SSE,165,8.0,22.0,21,0.00,,,0.00,VWS V14.01,2013-10-09 21:25:00,
2013-10-09 14:29:00,81.8,38.1,29.57,South,180,12.0,21.0,21,0.00,,,0.00,VWS V14.01,2013-10-09 21:29:00,
2013-10-09 14:30:00,81.8,38.1,29.58,South,188,10.0,21.0,21,0.00,,,0.00,VWS V14.01,2013-10-09 21:30:00,
2013-10-09 14:34:00,81.9,36.9,29.58,South,183,9.0,23.0,20,0.00,,,0.00,VWS V14.01,2013-10-09 21:34:00,
2013-10-09 14:35:00,81.9,36.9,29.57,SW,219,12.0,24.0,20,0.00,,,0.00,VWS V14.01,2013-10-09 21:35:00,
2013-10-09 14:39:00,81.9,35.6,29.57,South,189,10.0,22.0,19,0.00,,,0.00,VWS V14.01,2013-10-09 21:39:00,
2013-10-09 14:40:00,82.0,35.7,29.58,South,189,17.0,22.0,19,0.00,,,0.00,VWS V14.01,2013-10-09 21:40:00,
2013-10-09 14:44:00,82.4,34.7,29.57,SSW,209,14.0,22.0,18,0.00,,,0.00,VWS V14.01,2013-10-09 21:44:00,
2013-10-09 14:45:00,82.8,33.6,29.57,SSW,198,15.0,22.0,17,0.00,,,0.00,VWS V14.01,2013-10-09 21:45:00,
2013-10-09 14:49:00,84.1,31.5,29.57,SSW,211,15.0,19.0,15,0.00,,,0.00,VWS V14.01,2013-10-09 21:49:00,
2013-10-09 14:50:00,84.2,31.6,29.57,SSW,200,11.0,19.0,15,0.00,,,0.00,VWS V14.01,2013-10-09 21:50:00,
2013-10-09 14:54:00,83.6,31.1,29.57,SSW,202,7.0,25.0,15,0.00,,,0.00,VWS V14.01,2013-10-09 21:54:00,
2013-10-09 14:55:00,83.5,32.6,29.57,South,178,18.0,25.0,16,0.00,,,0.00,VWS V14.01,2013-10-09 21:55:00,
2013-10-09 14:59:00,83.3,32.5,29.57,SSW,209,20.0,20.0,16,0.00,,,0.00,VWS V14.01,2013-10-09 21:59:00,
2013-10-09 15:00:00,83.3,32.5,29.57,SW,229,19.0,23.0,16,0.00,,,0.00,VWS V14.01,2013-10-09 22:00:00,
2013-10-09 15:04:00,83.2,33.9,29.57,SSW,202,8.0,16.0,17,0.00,,,0.00,VWS V14.01,2013-10-09 22:04:00,
2013-10-09 15:05:00,83.4,34.1,29.57,SSE,162,8.0,16.0,17,0.00,,,0.00,VWS V14.01,2013-10-09 22:05:00,
2013-10-09 15:09:00,83.2,35.3,29.57,South,188,8.0,29.0,18,0.00,,,0.00,VWS V14.01,2013-10-09 22:09:00,
2013-10-09 15:10:00,83.0,35.2,29.57,SSW,213,10.0,29.0,18,0.00,,,0.00,VWS V14.01,2013-10-09 22:10:00,
2013-10-09 15:14:00,82.7,34.9,29.57,SSW,195,9.0,22.0,18,0.00,,,0.00,VWS V14.01,2013-10-09 22:14:00,
2013-10-09 15:15:00,82.7,36.3,29.57,South,181,15.0,22.0,19,0.00,,,0.00,VWS V14.01,2013-10-09 22:15:00,
2013-10-09 15:19:00,82.5,36.1,29.56,South,173,19.0,24.0,19,0.00,,,0.00,VWS V14.01,2013-10-09 22:19:00,
2013-10-09 15:20:00,82.6,36.2,29.57,South,188,15.0,24.0,19,0.00,,,0.00,VWS V14.01,2013-10-09 22:20:00,
2013-10-09 15:24:00,83.5,35.6,29.56,WSW,237,11.0,21.0,18,0.00,,,0.00,VWS V14.01,2013-10-09 22:24:00,
2013-10-09 15:25:00,83.8,35.8,29.56,SSE,155,12.0,22.0,18,0.00,,,0.00,VWS V14.01,2013-10-09 22:25:00,
2013-10-09 15:29:00,84.0,37.3,29.56,SW,217,10.0,23.0,19,0.00,,,0.00,VWS V14.01,2013-10-09 22:29:00,
2013-10-09 15:30:00,83.9,37.3,29.56,SSE,167,22.0,23.0,19,0.00,,,0.00,VWS V14.01,2013-10-09 22:30:00,
2013-10-09 15:34:00,83.7,34.3,29.56,SSW,211,12.0,26.0,17,0.00,,,0.00,VWS V14.01,2013-10-09 22:34:00,
2013-10-09 15:35:00,83.7,34.3,29.56,SSW,213,23.0,26.0,17,0.00,,,0.00,VWS V14.01,2013-10-09 22:35:00,
2013-10-09 15:39:00,83.7,34.3,29.56,SSW,192,22.0,23.0,17,0.00,,,0.00,VWS V14.01,2013-10-09 22:39:00,
2013-10-09 15:40:00,83.6,34.2,29.56,SW,234,14.0,23.0,17,0.00,,,0.00,VWS V14.01,2013-10-09 22:40:00,
2013-10-09 15:44:00,83.4,34.1,29.56,South,186,13.0,28.0,17,0.00,,,0.00,VWS V14.01,2013-10-09 22:44:00,
2013-10-09 15:45:00,83.3,35.4,29.57,SW,219,20.0,28.0,18,0.00,,,0.00,VWS V14.01,2013-10-09 22:45:00,
2013-10-09 15:49:00,82.9,35.1,29.56,SW,216,17.0,24.0,18,0.00,,,0.00,VWS V14.01,2013-10-09 22:49:00,
2013-10-09 15:50:00,82.8,35.0,29.56,SW,224,8.0,24.0,18,0.00,,,0.00,VWS V14.01,2013-10-09 22:50:00,
2013-10-09 15:54:00,82.7,34.9,29.56,SW,219,5.0,21.0,18,0.00,,,0.00,VWS V14.01,2013-10-09 22:54:00,
2013-10-09 15:55:00,82.8,35.0,29.56,SSW,203,12.0,21.0,18,0.00,,,0.00,VWS V14.01,2013-10-09 22:55:00,
2013-10-09 15:59:00,82.8,35.0,29.56,South,186,14.0,20.0,18,0.00,,,0.00,VWS V14.01,2013-10-09 22:59:00,
2013-10-09 16:00:00,82.8,35.0,29.56,SW,231,9.0,20.0,18,0.00,,,0.00,VWS V14.01,2013-10-09 23:00:00,
2013-10-09 16:04:00,82.5,34.8,29.56,SSW,200,13.0,22.0,18,0.00,,,0.00,VWS V14.01,2013-10-09 23:04:00,
2013-10-09 16:05:00,82.5,34.8,29.56,South,184,8.0,22.0,18,0.00,,,0.00,VWS V14.01,2013-10-09 23:05:00,
2013-10-09 16:09:00,82.5,38.7,29.56,South,189,8.0,16.0,21,0.00,,,0.00,VWS V14.01,2013-10-09 23:09:00,
2013-10-09 16:10:00,82.5,37.4,29.57,SW,219,13.0,21.0,20,0.00,,,0.00,VWS V14.01,2013-10-09 23:10:00,
2013-10-09 16:14:00,82.2,38.4,29.56,South,178,8.0,22.0,21,0.00,,,0.00,VWS V14.01,2013-10-09 23:14:00,
2013-10-09 16:15:00,82.2,38.4,29.56,SW,227,9.0,22.0,21,0.00,,,0.00,VWS V14.01,2013-10-09 23:15:00,
2013-10-09 16:19:00,82.2,35.9,29.56,SW,216,13.0,19.0,19,0.00,,,0.00,VWS V14.01,2013-10-09 23:19:00,
2013-10-09 16:20:00,82.2,37.2,29.56,SW,217,9.0,19.0,20,0.00,,,0.00,VWS V14.01,2013-10-09 23:20:00,
2013-10-09 16:24:00,82.3,38.5,29.56,South,183,14.0,19.0,21,0.00,,,0.00,VWS V14.01,2013-10-09 23:24:00,
2013-10-09 16:25:00,82.3,38.5,29.56,SSW,201,10.0,19.0,21,0.00,,,0.00,VWS V14.01,2013-10-09 23:25:00,
2013-10-09 16:29:00,82.0,39.4,29.56,SSE,165,8.0,21.0,22,0.00,,,0.00,VWS V14.01,2013-10-09 23:29:00,
2013-10-09 16:30:00,81.9,39.4,29.56,SW,227,20.0,21.0,22,0.00,,,0.00,VWS V14.01,2013-10-09 23:30:00,
2013-10-09 16:34:00,81.4,40.1,29.56,SE,144,12.0,24.0,23,0.00,,,0.00,VWS V14.01,2013-10-09 23:34:00,
2013-10-09 16:35:00,81.2,39.9,29.56,South,190,18.0,24.0,23,0.00,,,0.00,VWS V14.01,2013-10-09 23:35:00,
2013-10-09 16:39:00,81.1,39.8,29.56,SE,145,10.0,24.0,23,0.00,,,0.00,VWS V14.01,2013-10-09 23:39:00,
2013-10-09 16:40:00,81.1,39.8,29.56,South,182,17.0,24.0,23,0.00,,,0.00,VWS V14.01,2013-10-09 23:40:00,
2013-10-09 16:44:00,80.9,39.7,29.56,SSW,202,11.0,28.0,23,0.00,,,0.00,VWS V14.01,2013-10-09 23:44:00,
2013-10-09 16:45:00,80.8,39.6,29.56,South,182,18.0,28.0,23,0.00,,,0.00,VWS V14.01,2013-10-09 23:45:00,
2013-10-09 16:49:00,80.6,39.4,29.57,SSW,196,15.0,24.0,23,0.00,,,0.00,VWS V14.01,2013-10-09 23:49:00,
2013-10-09 16:50:00,80.6,39.4,29.57,WSW,242,15.0,24.0,23,0.00,,,0.00,VWS V14.01,2013-10-09 23:50:00,
2013-10-09 16:54:00,80.4,39.2,29.57,South,189,10.0,23.0,23,0.00,,,0.00,VWS V14.01,2013-10-09 23:54:00,
2013-10-09 16:55:00,80.4,39.2,29.57,SSE,150,12.0,23.0,23,0.00,,,0.00,VWS V14.01,2013-10-09 23:55:00,
2013-10-09 16:59:00,80.2,40.2,29.57,SSW,211,11.0,22.0,24,0.00,,,0.00,VWS V14.01,2013-10-09 23:59:00,
2013-10-09 17:00:00,80.2,40.2,29.57,South,170,22.0,22.0,24,0.00,,,0.00,VWS V14.01,2013-10-10 00:00:00,
2013-10-09 17:04:00,80.0,41.1,29.57,SW,216,12.0,24.0,25,0.00,,,0.00,VWS V14.01,2013-10-10 00:04:00,
2013-10-09 17:05:00,80.0,41.1,29.57,SSW,192,11.0,24.0,25,0.00,,,0.00,VWS V14.01,2013-10-10 00:05:00,
2013-10-09 17:09:00,79.8,40.9,29.56,South,190,12.0,17.0,25,0.00,,,0.00,VWS V14.01,2013-10-10 00:09:00,
2013-10-09 17:10:00,79.8,40.9,29.56,SSW,211,14.0,18.0,25,0.00,,,0.00,VWS V14.01,2013-10-10 00:10:00,
2013-10-09 17:14:00,79.6,40.7,29.57,SSW,213,14.0,23.0,25,0.00,,,0.00,VWS V14.01,2013-10-10 00:14:00,
2013-10-09 17:15:00,79.6,40.7,29.56,West,263,17.0,23.0,25,0.00,,,0.00,VWS V14.01,2013-10-10 00:15:00,
2013-10-09 17:19:00,79.4,41.6,29.57,SW,220,17.0,26.0,26,0.00,,,0.00,VWS V14.01,2013-10-10 00:19:00,
2013-10-09 17:20:00,79.4,41.6,29.57,South,190,13.0,26.0,26,0.00,,,0.00,VWS V14.01,2013-10-10 00:20:00,
2013-10-09 17:24:00,79.2,42.4,29.57,SW,221,12.0,22.0,27,0.00,,,0.00,VWS V14.01,2013-10-10 00:24:00,
2013-10-09 17:29:00,79.0,43.2,29.57,South,188,12.0,18.0,28,0.00,,,0.00,VWS V14.01,2013-10-10 00:29:00,
2013-10-09 17:35:00,78.9,43.1,29.57,SSE,165,13.0,25.0,28,0.00,,,0.00,VWS V14.01,2013-10-10 00:35:00,
2013-10-09 17:44:00,78.7,42.9,29.57,SSW,195,10.0,23.0,28,0.00,,,0.00,VWS V14.01,2013-10-10 00:44:00,
2013-10-09 17:45:00,78.7,42.9,29.57,SSW,210,11.0,23.0,28,0.00,,,0.00,VWS V14.01,2013-10-10 00:45:00,
2013-10-09 17:49:00,78.6,42.8,29.57,SW,215,11.0,21.0,28,0.00,,,0.00,VWS V14.01,2013-10-10 00:49:00,
2013-10-09 17:50:00,78.6,42.8,29.57,SSW,198,10.0,22.0,28,0.00,,,0.00,VWS V14.01,2013-10-10 00:50:00,
2013-10-09 17:54:00,78.5,42.7,29.57,SSE,161,7.0,23.0,28,0.00,,,0.00,VWS V14.01,2013-10-10 00:54:00,
2013-10-09 17:55:00,78.5,42.7,29.57,SW,232,7.0,23.0,28,0.00,,,0.00,VWS V14.01,2013-10-10 00:55:00,
2013-10-09 17:58:00,79.2,42.4,29.57,WSW,244,8.0,22.0,27,0.00,,,0.00,VWS V14.01,2013-10-10 00:58:00,
2013-10-09 17:59:00,78.4,43.5,29.57,SSW,204,8.0,23.0,29,0.00,,,0.00,VWS V14.01,2013-10-10 00:59:00,
2013-10-09 18:03:00,79.0,43.2,29.57,SW,217,15.0,21.0,28,0.00,,,0.00,VWS V14.01,2013-10-10 01:03:00,
2013-10-09 18:04:00,78.1,43.3,29.57,SW,228,12.0,21.0,29,0.00,,,0.00,VWS V14.01,2013-10-10 01:04:00,
2013-10-09 18:10:00,77.8,43.9,29.57,South,171,6.0,22.0,30,0.00,,,0.00,VWS V14.01,2013-10-10 01:10:00,
2013-10-09 18:12:00,78.7,42.9,29.57,SSW,200,17.0,22.0,28,0.00,,,0.00,VWS V14.01,2013-10-10 01:12:00,
2013-10-09 18:25:00,77.6,43.7,29.57,South,180,10.0,22.0,30,0.00,,,0.00,VWS V14.01,2013-10-10 01:25:00,
2013-10-09 18:29:00,77.6,43.7,29.57,South,190,7.0,21.0,30,0.00,,,0.00,VWS V14.01,2013-10-10 01:29:00,
2013-10-09 18:33:00,78.3,43.5,29.57,SSW,194,18.0,23.0,29,0.00,,,0.00,VWS V14.01,2013-10-10 01:33:00,
2013-10-09 18:34:00,77.5,43.7,29.57,SSW,200,9.0,23.0,30,0.00,,,0.00,VWS V14.01,2013-10-10 01:34:00,
2013-10-09 18:35:00,77.5,43.7,29.57,South,188,15.0,23.0,30,0.00,,,0.00,VWS V14.01,2013-10-10 01:35:00,
2013-10-09 18:38:00,78.1,43.3,29.57,SW,224,6.0,21.0,29,0.00,,,0.00,VWS V14.01,2013-10-10 01:38:00,
2013-10-09 18:39:00,77.5,43.7,29.58,SSW,213,10.0,18.0,30,0.00,,,0.00,VWS V14.01,2013-10-10 01:39:00,
2013-10-09 18:40:00,77.4,43.6,29.58,SSW,198,7.0,18.0,30,0.00,,,0.00,VWS V14.01,2013-10-10 01:40:00,
2013-10-09 18:44:00,77.3,43.5,29.58,SSW,211,12.0,19.0,30,0.00,,,0.00,VWS V14.01,2013-10-10 01:44:00,
2013-10-09 18:47:00,77.8,43.9,29.57,SW,221,11.0,24.0,30,0.00,,,0.00,VWS V14.01,2013-10-10 01:47:00,
2013-10-09 18:49:00,77.1,42.4,29.58,SW,216,7.0,18.0,29,0.00,,,0.00,VWS V14.01,2013-10-10 01:49:00,
2013-10-09 18:50:00,77.0,42.3,29.58,SW,230,3.0,18.0,29,0.00,,,0.00,VWS V14.01,2013-10-10 01:50:00,
2013-10-09 18:52:00,77.8,43.9,29.57,SSW,202,16.0,22.0,30,0.00,,,0.00,VWS V14.01,2013-10-10 01:52:00,
2013-10-09 18:54:00,76.7,43.0,29.58,SW,222,6.0,15.0,30,0.00,,,0.00,VWS V14.01,2013-10-10 01:54:00,
2013-10-09 18:57:00,77.6,43.7,29.57,SW,216,7.0,22.0,30,0.00,,,0.00,VWS V14.01,2013-10-10 01:57:00,
2013-10-09 18:59:00,76.1,44.1,29.58,SW,232,10.0,14.0,32,0.00,,,0.00,VWS V14.01,2013-10-10 01:59:00,
2013-10-09 19:00:00,76.0,44.0,29.58,SW,217,11.0,14.0,32,0.00,,,0.00,VWS V14.01,2013-10-10 02:00:00,
2013-10-09 19:03:00,77.5,43.7,29.57,South,188,17.0,21.0,30,0.00,,,0.00,VWS V14.01,2013-10-10 02:03:00,
2013-10-09 19:04:00,75.6,44.5,29.59,SW,217,14.0,15.0,33,0.00,,,0.00,VWS V14.01,2013-10-10 02:04:00,
2013-10-09 19:05:00,75.5,44.4,29.59,SSW,213,13.0,15.0,33,0.00,,,0.00,VWS V14.01,2013-10-10 02:05:00,
2013-10-09 19:09:00,75.2,44.9,29.59,WSW,238,7.0,15.0,34,0.00,,,0.00,VWS V14.01,2013-10-10 02:09:00,
2013-10-09 19:10:00,75.2,44.9,29.59,SW,226,4.0,15.0,34,0.00,,,0.00,VWS V14.01,2013-10-10 02:10:00,
2013-10-09 19:14:00,74.9,45.4,29.59,SSW,211,9.0,13.0,35,0.00,,,0.00,VWS V14.01,2013-10-10 02:14:00,
2013-10-09 19:15:00,74.8,45.3,29.59,SSW,199,11.0,13.0,35,0.00,,,0.00,VWS V14.01,2013-10-10 02:15:00,
2013-10-09 19:18:00,77.3,43.5,29.58,SW,221,10.0,19.0,30,0.00,,,0.00,VWS V14.01,2013-10-10 02:18:00,
2013-10-09 19:19:00,74.5,45.8,29.59,SW,214,15.0,16.0,36,0.00,,,0.00,VWS V14.01,2013-10-10 02:19:00,
2013-10-09 19:20:00,74.4,45.7,29.59,SSW,207,9.0,16.0,36,0.00,,,0.00,VWS V14.01,2013-10-10 02:20:00,
2013-10-09 19:24:00,74.1,45.5,29.59,SW,214,7.0,15.0,36,0.00,,,0.00,VWS V14.01,2013-10-10 02:24:00,
2013-10-09 19:25:00,74.1,46.2,29.59,SSW,212,10.0,15.0,37,0.00,,,0.00,VWS V14.01,2013-10-10 02:25:00,
2013-10-09 19:28:00,76.6,42.9,29.59,SW,234,5.0,15.0,30,0.00,,,0.00,VWS V14.01,2013-10-10 02:28:00,
2013-10-09 19:29:00,73.8,45.9,29.59,SSW,200,7.0,15.0,37,0.00,,,0.00,VWS V14.01,2013-10-10 02:29:00,
2013-10-09 19:30:00,73.7,45.8,29.59,SSW,211,9.0,15.0,37,0.00,,,0.00,VWS V14.01,2013-10-10 02:30:00,
2013-10-09 19:34:00,73.4,46.3,29.59,SSW,202,5.0,16.0,38,0.00,,,0.00,VWS V14.01,2013-10-10 02:34:00,
2013-10-09 19:35:00,73.4,46.3,29.59,SW,215,10.0,16.0,38,0.00,,,0.00,VWS V14.01,2013-10-10 02:35:00,
2013-10-09 19:39:00,73.2,46.1,29.59,SSW,213,6.0,12.0,38,0.00,,,0.00,VWS V14.01,2013-10-10 02:39:00,
2013-10-09 19:40:00,73.1,46.0,29.59,SW,215,8.0,13.0,38,0.00,,,0.00,VWS V14.01,2013-10-10 02:40:00,
2013-10-09 19:44:00,72.9,45.8,29.59,SW,219,4.0,14.0,38,0.00,,,0.00,VWS V14.01,2013-10-10 02:44:00,
2013-10-09 19:45:00,72.9,45.8,29.59,SSW,213,7.0,14.0,38,0.00,,,0.00,VWS V14.01,2013-10-10 02:45:00,
2013-10-09 19:49:00,72.6,46.2,29.60,SW,221,10.0,13.0,39,0.00,,,0.00,VWS V14.01,2013-10-10 02:49:00,
2013-10-09 19:50:00,72.6,46.2,29.60,SW,215,5.0,13.0,39,0.00,,,0.00,VWS V14.01,2013-10-10 02:50:00,
2013-10-09 19:54:00,72.5,46.2,29.60,SW,221,9.0,14.0,39,0.00,,,0.00,VWS V14.01,2013-10-10 02:54:00,
2013-10-09 19:55:00,72.4,46.1,29.60,SW,218,6.0,14.0,39,0.00,,,0.00,VWS V14.01,2013-10-10 02:55:00,
2013-10-09 19:59:00,72.3,46.0,29.60,SSW,213,10.0,14.0,39,0.00,,,0.00,VWS V14.01,2013-10-10 02:59:00,
2013-10-09 20:00:00,72.3,46.0,29.60,SW,217,6.0,14.0,39,0.00,,,0.00,VWS V14.01,2013-10-10 03:00:00,
2013-10-09 20:04:00,72.1,46.5,29.60,SW,218,6.0,10.0,40,0.00,,,0.00,VWS V14.01,2013-10-10 03:04:00,
2013-10-09 20:05:00,72.1,46.5,29.60,SW,215,6.0,10.0,40,0.00,,,0.00,VWS V14.01,2013-10-10 03:05:00,
2013-10-09 20:09:00,71.8,46.2,29.60,SW,227,4.0,9.0,40,0.00,,,0.00,VWS V14.01,2013-10-10 03:09:00,
2013-10-09 20:10:00,71.8,46.2,29.60,SW,219,4.0,9.0,40,0.00,,,0.00,VWS V14.01,2013-10-10 03:10:00,
2013-10-09 20:14:00,71.3,47.0,29.60,SW,214,3.0,8.0,42,0.00,,,0.00,VWS V14.01,2013-10-10 03:14:00,
2013-10-09 20:15:00,71.2,47.0,29.60,SW,217,1.0,8.0,42,0.00,,,0.00,VWS V14.01,2013-10-10 03:15:00,
2013-10-09 20:19:00,70.8,47.2,29.60,West,278,3.0,11.0,43,0.00,,,0.00,VWS V14.01,2013-10-10 03:19:00,
2013-10-09 20:20:00,70.7,47.1,29.60,SW,224,4.0,11.0,43,0.00,,,0.00,VWS V14.01,2013-10-10 03:20:00,
2013-10-09 20:24:00,70.2,47.3,29.60,SW,215,7.0,8.0,44,0.00,,,0.00,VWS V14.01,2013-10-10 03:24:00,
2013-10-09 20:25:00,70.2,47.3,29.60,WSW,238,3.0,10.0,44,0.00,,,0.00,VWS V14.01,2013-10-10 03:25:00,
2013-10-09 20:29:00,69.9,47.6,29.60,West,265,6.0,7.0,45,0.00,,,0.00,VWS V14.01,2013-10-10 03:29:00,
2013-10-09 20:30:00,69.9,47.6,29.60,WSW,257,3.0,7.0,45,0.00,,,0.00,VWS V14.01,2013-10-10 03:30:00,
2013-10-09 20:34:00,69.7,47.4,29.60,SW,225,4.0,9.0,45,0.00,,,0.00,VWS V14.01,2013-10-10 03:34:00,
2013-10-09 20:35:00,69.7,48.0,29.60,SW,229,4.0,9.0,46,0.00,,,0.00,VWS V14.01,2013-10-10 03:35:00,
2013-10-09 20:39:00,69.6,47.9,29.61,WSW,237,2.0,9.0,46,0.00,,,0.00,VWS V14.01,2013-10-10 03:39:00,
2013-10-09 20:40:00,69.6,47.9,29.61,SW,219,6.0,9.0,46,0.00,,,0.00,VWS V14.01,2013-10-10 03:40:00,
2013-10-09 20:44:00,69.5,47.8,29.61,WSW,240,8.0,10.0,46,0.00,,,0.00,VWS V14.01,2013-10-10 03:44:00,
2013-10-09 20:45:00,69.5,47.8,29.61,WSW,256,4.0,10.0,46,0.00,,,0.00,VWS V14.01,2013-10-10 03:45:00,
2013-10-09 20:49:00,69.4,47.7,29.61,WSW,244,5.0,9.0,46,0.00,,,0.00,VWS V14.01,2013-10-10 03:49:00,
2013-10-09 20:50:00,69.3,47.7,29.61,WSW,244,3.0,9.0,46,0.00,,,0.00,VWS V14.01,2013-10-10 03:50:00,
2013-10-09 20:54:00,69.2,47.6,29.61,SSW,207,5.0,7.0,46,0.00,,,0.00,VWS V14.01,2013-10-10 03:54:00,
2013-10-09 20:55:00,69.2,47.6,29.61,WSW,238,2.0,7.0,46,0.00,,,0.00,VWS V14.01,2013-10-10 03:55:00,
2013-10-09 20:59:00,69.1,47.5,29.61,SSW,202,8.0,9.0,46,0.00,,,0.00,VWS V14.01,2013-10-10 03:59:00,
2013-10-09 21:00:00,69.1,47.5,29.61,SW,224,4.0,9.0,46,0.00,,,0.00,VWS V14.01,2013-10-10 04:00:00,
2013-10-09 21:04:00,69.1,47.5,29.62,WSW,254,5.0,9.0,46,0.00,,,0.00,VWS V14.01,2013-10-10 04:04:00,
2013-10-09 21:05:00,69.1,47.5,29.62,West,265,8.0,9.0,46,0.00,,,0.00,VWS V14.01,2013-10-10 04:05:00,
2013-10-09 21:09:00,69.0,47.4,29.62,WNW,296,4.0,10.0,46,0.00,,,0.00,VWS V14.01,2013-10-10 04:09:00,
2013-10-09 21:10:00,69.0,47.4,29.62,SSW,211,4.0,10.0,46,0.00,,,0.00,VWS V14.01,2013-10-10 04:10:00,
2013-10-09 21:14:00,68.9,47.3,29.62,SW,227,5.0,11.0,46,0.00,,,0.00,VWS V14.01,2013-10-10 04:14:00,
2013-10-09 21:15:00,68.8,47.8,29.62,West,269,6.0,11.0,47,0.00,,,0.00,VWS V14.01,2013-10-10 04:15:00,
2013-10-09 21:19:00,68.6,47.6,29.62,SW,217,5.0,11.0,47,0.00,,,0.00,VWS V14.01,2013-10-10 04:19:00,
2013-10-09 21:20:00,68.6,47.6,29.62,SSW,212,2.0,11.0,47,0.00,,,0.00,VWS V14.01,2013-10-10 04:20:00,
2013-10-09 21:24:00,68.4,47.4,29.62,SW,229,2.0,9.0,47,0.00,,,0.00,VWS V14.01,2013-10-10 04:24:00,
2013-10-09 21:25:00,68.4,47.4,29.62,SW,220,6.0,9.0,47,0.00,,,0.00,VWS V14.01,2013-10-10 04:25:00,
2013-10-09 21:29:00,68.2,47.2,29.62,WNW,287,5.0,12.0,47,0.00,,,0.00,VWS V14.01,2013-10-10 04:29:00,
2013-10-09 21:30:00,68.2,47.2,29.62,SW,215,5.0,12.0,47,0.00,,,0.00,VWS V14.01,2013-10-10 04:30:00,
2013-10-09 21:34:00,68.0,47.6,29.62,WSW,237,4.0,11.0,48,0.00,,,0.00,VWS V14.01,2013-10-10 04:34:00,
2013-10-09 21:35:00,67.9,47.5,29.62,WSW,238,3.0,11.0,48,0.00,,,0.00,VWS V14.01,2013-10-10 04:35:00,
2013-10-09 21:39:00,67.6,47.2,29.62,SW,221,4.0,5.0,48,0.00,,,0.00,VWS V14.01,2013-10-10 04:39:00,
2013-10-09 21:40:00,67.6,47.8,29.62,SW,219,1.0,5.0,49,0.00,,,0.00,VWS V14.01,2013-10-10 04:40:00,
2013-10-09 21:44:00,67.3,47.5,29.62,SW,215,2.0,8.0,49,0.00,,,0.00,VWS V14.01,2013-10-10 04:44:00,
2013-10-09 21:45:00,67.3,47.5,29.62,SW,231,2.0,8.0,49,0.00,,,0.00,VWS V14.01,2013-10-10 04:45:00,
2013-10-09 21:49:00,67.1,47.3,29.62,WSW,246,6.0,8.0,49,0.00,,,0.00,VWS V14.01,2013-10-10 04:49:00,
2013-10-09 21:50:00,67.1,47.9,29.62,SW,219,3.0,8.0,50,0.00,,,0.00,VWS V14.01,2013-10-10 04:50:00,
2013-10-09 21:54:00,66.9,47.7,29.62,SW,229,2.0,8.0,50,0.00,,,0.00,VWS V14.01,2013-10-10 04:54:00,
2013-10-09 21:55:00,66.9,47.7,29.62,West,269,2.0,8.0,50,0.00,,,0.00,VWS V14.01,2013-10-10 04:55:00,
2013-10-09 21:59:00,66.7,48.0,29.63,WNW,289,6.0,9.0,51,0.00,,,0.00,VWS V14.01,2013-10-10 04:59:00,
2013-10-09 22:00:00,66.7,48.0,29.63,WSW,246,4.0,9.0,51,0.00,,,0.00,VWS V14.01,2013-10-10 05:00:00,
2013-10-09 22:04:00,66.4,48.3,29.63,SW,233,4.0,7.0,52,0.00,,,0.00,VWS V14.01,2013-10-10 05:04:00,
2013-10-09 22:05:00,66.3,48.2,29.62,SW,226,2.0,7.0,52,0.00,,,0.00,VWS V14.01,2013-10-10 05:05:00,
2013-10-09 22:09:00,66.1,48.0,29.62,West,265,6.0,8.0,52,0.00,,,0.00,VWS V14.01,2013-10-10 05:09:00,
2013-10-09 22:10:00,66.1,48.0,29.62,South,182,3.0,8.0,52,0.00,,,0.00,VWS V14.01,2013-10-10 05:10:00,
2013-10-09 22:14:00,66.0,47.9,29.62,West,265,7.0,9.0,52,0.00,,,0.00,VWS V14.01,2013-10-10 05:14:00,
2013-10-09 22:15:00,65.9,47.8,29.62,WSW,250,2.0,9.0,52,0.00,,,0.00,VWS V14.01,2013-10-10 05:15:00,
2013-10-09 22:19:00,65.7,48.1,29.62,West,262,5.0,9.0,53,0.00,,,0.00,VWS V14.01,2013-10-10 05:19:00,
2013-10-09 22:20:00,65.7,48.1,29.62,WSW,255,3.0,9.0,53,0.00,,,0.00,VWS V14.01,2013-10-10 05:20:00,
2013-10-09 22:24:00,65.6,47.5,29.62,West,259,6.0,9.0,52,0.00,,,0.00,VWS V14.01,2013-10-10 05:24:00,
2013-10-09 22:25:00,65.6,47.5,29.62,SW,236,1.0,9.0,52,0.00,,,0.00,VWS V14.01,2013-10-10 05:25:00,
2013-10-09 22:30:00,65.5,47.4,29.62,SSW,211,4.0,7.0,52,0.00,,,0.00,VWS V14.01,2013-10-10 05:30:00,
2013-10-09 22:35:00,65.4,47.3,29.62,SW,217,3.0,10.0,52,0.00,,,0.00,VWS V14.01,2013-10-10 05:35:00,
2013-10-09 22:40:00,65.3,47.2,29.62,SW,233,4.0,11.0,52,0.00,,,0.00,VWS V14.01,2013-10-10 05:40:00,
2013-10-09 22:45:00,65.2,47.2,29.62,SSW,209,1.0,8.0,52,0.00,,,0.00,VWS V14.01,2013-10-10 05:45:00,
2013-10-09 22:50:00,65.0,47.0,29.63,West,271,3.0,8.0,52,0.00,,,0.00,VWS V14.01,2013-10-10 05:50:00,
2013-10-09 22:55:00,64.9,46.9,29.63,SW,219,8.0,10.0,52,0.00,,,0.00,VWS V14.01,2013-10-10 05:55:00,
2013-10-09 23:00:00,64.8,46.8,29.63,WSW,244,3.0,10.0,52,0.00,,,0.00,VWS V14.01,2013-10-10 06:00:00,
2013-10-09 23:05:00,64.7,46.7,29.62,SSW,209,5.0,9.0,52,0.00,,,0.00,VWS V14.01,2013-10-10 06:05:00,
2013-10-09 23:10:00,64.7,46.7,29.63,SSW,211,5.0,9.0,52,0.00,,,0.00,VWS V14.01,2013-10-10 06:10:00,
2013-10-09 23:15:00,64.6,46.6,29.63,SW,221,3.0,8.0,52,0.00,,,0.00,VWS V14.01,2013-10-10 06:15:00,
2013-10-09 23:20:00,64.4,46.4,29.63,SW,221,6.0,8.0,52,0.00,,,0.00,VWS V14.01,2013-10-10 06:20:00,
2013-10-09 23:25:00,64.3,46.3,29.63,SSW,211,2.0,9.0,52,0.00,,,0.00,VWS V14.01,2013-10-10 06:25:00,
2013-10-09 23:30:00,64.3,46.3,29.63,SSW,213,6.0,9.0,52,0.00,,,0.00,VWS V14.01,2013-10-10 06:30:00,
2013-10-09 23:35:00,64.1,46.6,29.63,SW,226,8.0,10.0,53,0.00,,,0.00,VWS V14.01,2013-10-10 06:35:00,
2013-10-09 23:40:00,63.9,46.5,29.63,SW,217,7.0,14.0,53,0.00,,,0.00,VWS V14.01,2013-10-10 06:40:00,
2013-10-09 23:45:00,63.7,46.8,29.63,SSW,211,8.0,11.0,54,0.00,,,0.00,VWS V14.01,2013-10-10 06:45:00,
2013-10-09 23:50:00,63.5,47.1,29.63,SSW,208,7.0,10.0,55,0.00,,,0.00,VWS V14.01,2013-10-10 06:50:00,
2013-10-09 23:55:00,63.3,46.9,29.63,SW,220,5.0,11.0,55,0.00,,,0.00,VWS V14.01,2013-10-10 06:55:00,